CZ-6A DEB, 54581

Orbit data source: Space-Track

CZ-6A DEB, 54581 is space debris in SSO originally from a launch on Fri, 11 Nov 2022 UTC launched from the Taiyaun Space Center, China (TSC). Debris objects in space refer to the collection of defunct objects orbiting the Earth. Examples of debris include non-operational satellites, rocket bodies, and fragments generated from explosions, collisions, or faulty payload assembly.

Loading next visibility...
Identifier
54581, 2022-151MH
Orbit
SSO
Country
Flag of CNCN / PRC
Related business
Manufacturer
SAST
Mission
Spacecraft
Bus & Motor
Unknown
Mass
Unknown
Launch date (UTC)
2022-11-11 (3 years ago)
Launch vehicle
Unknown
Launch site
Taiyaun Space Center, China (TSC)
Object type
Payload
Rocket body
Debris
Shape & HBR
Unknown shape, 3.0 m
Radar Cross Section
Large (>1 m²)

Expand to show TLE details & history
Last TLE update: 16 hours ago

TLE from 16 hours ago
0 CZ-6A DEB
1 54581U 22151MH  25350.36618487  .00000503  00000-0  16731-3 0  9991
2 54581  98.6310  20.5157 0117305 189.3951 170.5042 14.38269390161636
Epoch: 2025-12-16T08:47Z
TLE epoch observation values (Epoch: 2025-12-16T08:47:18.372Z)
Latitude
-0.00003°
Longitude
163.43773°
Altitude
849.843 km
Speed
7.385 km/s
True Right ascension
01h 22m 03s
True Declination
0° 00' 00"
Sunlit
Object was in daylight at epoch
Visualization orbit readout
Latitude
Unknown
Longitude
Unknown
Altitude
Unknown
Speed
Unknown
Apparent Right ascension
Unknown
Apparent Declination
Unknown
Sunlit
N/A
Visualization observer readout
Local Sidereal Time
23:56:17
Azimuth
Unknown
Elevation
Unknown
Doppler factor
Unknown
Orbital elements
Apogee altitude
845.102 km
Perigee altitude
677.602 km
Semi-major axis
7,139.489 km
Eccentricity
0.01173
Inclination
98.631°
RAAN
20.5157°
Arg. of periapsis
189.3951°
True anomaly
170.7228°
Mean anomaly
170.5042°
Eccentric anomaly
170.61381°
Mean motion
3.59785 °/min
Orbital period
100.06 mins
BSTAR
0.00016731
Loading maneuver chart data...
Computing Atmospheric mass density...

Documentation

Showing up to 5 results
|